Hourly Weather Giumri

Today, 8 August, Saturday

Time Temperature Precipitation Wind Pressure Humidity
00:00 +15°C° 0 mm 2 mps 635 mmHg 65%
01:00 +15°C° 0 mm 2 mps 635 mmHg 66%
02:00 +14°C° 0 mm 2 mps 634 mmHg 67%
03:00 +14°C° 0 mm 2 mps 634 mmHg 69%
04:00 +14°C° 0 mm 2 mps 634 mmHg 69%
05:00 +14°C° 0 mm 2 mps 634 mmHg 69%
06:00 +14°C° 0 mm 1 mps 634 mmHg 69%
07:00 +16°C° 0 mm 2 mps 635 mmHg 62%
08:00 +19°C° 0 mm 2 mps 635 mmHg 56%
09:00 +21°C° 0 mm 2 mps 636 mmHg 49%
10:00 +23°C° 0 mm 2 mps 636 mmHg 46%
11:00 +24°C° 0 mm 2 mps 636 mmHg 43%
12:00 +25°C° 0 mm 2 mps 636 mmHg 40%
13:00 +26°C° 0 mm 3 mps 635 mmHg 41%
14:00 +26°C° 0 mm 3 mps 635 mmHg 41%
15:00 +26°C° 0 mm 3 mps 635 mmHg 41%
16:00 +26°C° 0 mm 3 mps 634 mmHg 47%
17:00 +25°C° 0 mm 3 mps 634 mmHg 52%
18:00 +24°C° 0 mm 3 mps 633 mmHg 57%
19:00 +21°C° 0 mm 3 mps 633 mmHg 62%
20:00 +19°C° 0 mm 3 mps 633 mmHg 68%
21:00 +17°C° 0 mm 2 mps 632 mmHg 73%
22:00 +17°C° 0 mm 2 mps 632 mmHg 73%
23:00 +17°C° 0 mm 2 mps 632 mmHg 73%

Tomorrow, 9 August, Sunday

Time Temperature Precipitation Wind Pressure Humidity
00:00 +16°C° 0 mm 2 mps 632 mmHg 73%
01:00 +16°C° 0 mm 2 mps 632 mmHg 72%
02:00 +15°C° 0 mm 2 mps 632 mmHg 71%
03:00 +15°C° 0 mm 2 mps 631 mmHg 71%
04:00 +15°C° 0 mm 1 mps 631 mmHg 71%
05:00 +15°C° 0 mm 1 mps 631 mmHg 71%
06:00 +15°C° 0 mm 1 mps 631 mmHg 71%
07:00 +19°C° 0 mm 1 mps 632 mmHg 64%
08:00 +21°C° 0 mm 1 mps 633 mmHg 58%
09:00 +23°C° 0 mm 2 mps 633 mmHg 51%
10:00 +24°C° 0 mm 2 mps 633 mmHg 47%
11:00 +25°C° 0 mm 2 mps 633 mmHg 43%
12:00 +27°C° 0 mm 2 mps 633 mmHg 39%
13:00 +27°C° 0 mm 2 mps 633 mmHg 38%
14:00 +28°C° 0 mm 2 mps 633 mmHg 38%
15:00 +28°C° 0 mm 2 mps 633 mmHg 37%
16:00 +27°C° 0.1 mm 3 mps 633 mmHg 42%
17:00 +26°C° 0.1 mm 3 mps 632 mmHg 48%
18:00 +25°C° 0.1 mm 3 mps 632 mmHg 53%
19:00 +24°C° 0 mm 3 mps 631 mmHg 58%
20:00 +21°C° 0 mm 2 mps 631 mmHg 62%
21:00 +19°C° 0 mm 2 mps 631 mmHg 67%
22:00 +19°C° 0 mm 2 mps 631 mmHg 67%
23:00 +18°C° 0 mm 2 mps 631 mmHg 66%

Day after tomorrow, 10 August, Monday

Time Temperature Precipitation Wind Pressure Humidity
00:00 +18°C° 0 mm 2 mps 631 mmHg 66%
01:00 +18°C° 0 mm 2 mps 631 mmHg 65%
02:00 +17°C° 0 mm 2 mps 631 mmHg 65%
03:00 +17°C° 0 mm 2 mps 631 mmHg 65%
04:00 +17°C° 0 mm 2 mps 631 mmHg 66%
05:00 +17°C° 0 mm 2 mps 631 mmHg 66%
06:00 +17°C° 0 mm 2 mps 631 mmHg 67%
07:00 +19°C° 0 mm 2 mps 632 mmHg 61%
08:00 +21°C° 0 mm 2 mps 632 mmHg 55%
09:00 +24°C° 0 mm 2 mps 633 mmHg 49%
10:00 +26°C° 0 mm 2 mps 633 mmHg 46%
11:00 +27°C° 0 mm 3 mps 633 mmHg 43%
12:00 +28°C° 0 mm 3 mps 633 mmHg 40%
13:00 +29°C° 0.1 mm 3 mps 633 mmHg 40%
14:00 +29°C° 0.1 mm 4 mps 633 mmHg 40%
15:00 +29°C° 0.1 mm 4 mps 633 mmHg 40%
16:00 +28°C° 0.1 mm 4 mps 632 mmHg 46%
17:00 +26°C° 0.1 mm 5 mps 632 mmHg 53%
18:00 +23°C° 0.1 mm 5 mps 632 mmHg 59%
19:00 +22°C° 0 mm 5 mps 632 mmHg 62%
20:00 +20°C° 0 mm 4 mps 632 mmHg 65%
21:00 +19°C° 0 mm 3 mps 632 mmHg 68%
22:00 +18°C° 0 mm 3 mps 632 mmHg 68%
23:00 +17°C° 0 mm 3 mps 632 mmHg 69%

11 August, Tuesday

Time Temperature Precipitation Wind Pressure Humidity
00:00 +17°C° 0 mm 3 mps 632 mmHg 69%
01:00 +17°C° 0 mm 3 mps 632 mmHg 71%
02:00 +16°C° 0 mm 3 mps 632 mmHg 72%
03:00 +16°C° 0 mm 3 mps 632 mmHg 74%
04:00 +16°C° 0 mm 3 mps 632 mmHg 75%
05:00 +16°C° 0 mm 3 mps 632 mmHg 76%
06:00 +14°C° 0 mm 3 mps 632 mmHg 77%
07:00 +17°C° 0 mm 3 mps 632 mmHg 70%
08:00 +20°C° 0 mm 3 mps 633 mmHg 62%
09:00 +22°C° 0 mm 3 mps 634 mmHg 55%
10:00 +24°C° 0 mm 3 mps 634 mmHg 52%
11:00 +25°C° 0 mm 2 mps 634 mmHg 49%
12:00 +27°C° 0 mm 2 mps 634 mmHg 46%
13:00 +27°C° 0.2 mm 3 mps 634 mmHg 46%
14:00 +27°C° 0.2 mm 3 mps 634 mmHg 46%
15:00 +28°C° 0.2 mm 4 mps 633 mmHg 46%
16:00 +26°C° 0.3 mm 4 mps 633 mmHg 51%
17:00 +25°C° 0.3 mm 4 mps 633 mmHg 57%
18:00 +23°C° 0.3 mm 4 mps 632 mmHg 63%
19:00 +21°C° 0.2 mm 3 mps 632 mmHg 67%
20:00 +20°C° 0.2 mm 3 mps 632 mmHg 72%
21:00 +18°C° 0.2 mm 3 mps 632 mmHg 76%
22:00 +18°C° 0 mm 3 mps 632 mmHg 77%
23:00 +17°C° 0 mm 2 mps 632 mmHg 78%

12 August, Wednesday

Time Temperature Precipitation Wind Pressure Humidity
00:00 +17°C° 0 mm 2 mps 632 mmHg 79%
01:00 +17°C° 0 mm 2 mps 632 mmHg 79%
02:00 +17°C° 0 mm 2 mps 632 mmHg 79%
03:00 +16°C° 0 mm 2 mps 632 mmHg 78%
04:00 +16°C° 0 mm 2 mps 632 mmHg 79%
05:00 +16°C° 0 mm 2 mps 632 mmHg 80%
06:00 +16°C° 0 mm 2 mps 632 mmHg 81%
07:00 +18°C° 0 mm 2 mps 632 mmHg 74%
08:00 +20°C° 0 mm 3 mps 633 mmHg 67%
09:00 +21°C° 0 mm 3 mps 634 mmHg 60%
10:00 +24°C° 0 mm 3 mps 634 mmHg 57%
11:00 +25°C° 0 mm 3 mps 634 mmHg 55%
12:00 +26°C° 0 mm 3 mps 634 mmHg 52%
13:00 +26°C° 0.2 mm 3 mps 634 mmHg 52%
14:00 +26°C° 0.2 mm 3 mps 633 mmHg 52%
15:00 +27°C° 0.2 mm 3 mps 633 mmHg 52%
16:00 +26°C° 0.3 mm 4 mps 633 mmHg 56%
17:00 +25°C° 0.3 mm 4 mps 632 mmHg 60%
18:00 +23°C° 0.3 mm 4 mps 632 mmHg 63%
19:00 +21°C° 0.3 mm 4 mps 632 mmHg 68%
20:00 +20°C° 0.3 mm 4 mps 632 mmHg 73%
21:00 +19°C° 0.3 mm 3 mps 633 mmHg 77%
22:00 +18°C° 0.1 mm 3 mps 632 mmHg 78%
23:00 +18°C° 0.1 mm 3 mps 632 mmHg 79%

13 August, Thursday

Time Temperature Precipitation Wind Pressure Humidity
00:00 +17°C° 0.1 mm 2 mps 632 mmHg 79%
01:00 +17°C° 0.2 mm 2 mps 632 mmHg 80%
02:00 +17°C° 0.2 mm 2 mps 632 mmHg 80%
03:00 +17°C° 0.2 mm 3 mps 632 mmHg 80%
04:00 +16°C° 0.1 mm 2 mps 632 mmHg 81%
05:00 +16°C° 0.1 mm 2 mps 632 mmHg 82%
06:00 +16°C° 0.1 mm 2 mps 632 mmHg 82%
07:00 +18°C° 0.1 mm 2 mps 632 mmHg 75%
08:00 +20°C° 0.1 mm 2 mps 632 mmHg 67%
09:00 +21°C° 0.1 mm 2 mps 633 mmHg 59%
10:00 +24°C° 0.4 mm 2 mps 633 mmHg 56%
11:00 +25°C° 0.4 mm 2 mps 633 mmHg 53%
12:00 +27°C° 0.4 mm 1 mps 633 mmHg 49%
13:00 +27°C° 0.4 mm 2 mps 633 mmHg 48%
14:00 +28°C° 0.4 mm 3 mps 633 mmHg 46%
15:00 +28°C° 0.4 mm 3 mps 633 mmHg 45%
16:00 +26°C° 0.7 mm 3 mps 632 mmHg 54%
17:00 +24°C° 0.7 mm 2 mps 631 mmHg 63%
18:00 +21°C° 0.7 mm 2 mps 631 mmHg 72%
19:00 +20°C° 0.5 mm 2 mps 631 mmHg 74%
20:00 +20°C° 0.5 mm 2 mps 632 mmHg 75%
21:00 +19°C° 0.5 mm 3 mps 633 mmHg 76%
22:00 +19°C° 0.3 mm 3 mps 632 mmHg 78%
23:00 +18°C° 0.3 mm 3 mps 632 mmHg 80%
Show more